sat.trackr.live / text

‹ back to catalog

STARLINK-4596

NORAD 53624 · 2022-104AN

PAYLOAD ACTIVE UNKNOWN

§ Identity

Operator
Country
US
Launch date
2022-08-28
Launch site
AFETR
Launch vehicle
Mass (kg)
RCS (m²)

Purposes: comms

External: N2YO · Heavens-Above · Gunter

§ Orbital elements

Epoch: 2026-05-25T00:47:20.584032Z

Period
95.44 min
Inclination
53.2136°
Eccentricity
0.0001403
Mean motion
15.08840682 rev/d
Perigee alt
538.8 km
Apogee alt
540.7 km
Semi-major
6,917.9 km
B*
1.5100e-6
RAAN
251.1605°
Arg perigee
86.1704°
Mean anomaly
273.9448°
Rev number
20,727

§ Raw data

STARLINK-45961 53624U 22104AN  26145.03287713 -.00000264  00000+0  15100-5 0  99922 53624  53.2136 251.1605 0001403  86.1704 273.9448 15.08840682207273

JSON: /api/v1/satellites/53624 · /tle

For live sub-satellite position, see the globe view (requires WebGL).

§ Visibility from observer

Set your observer location to see the next 7 days of passes ≥ 10°. The values pass through the URL so the page stays shareable.

No JS? Fill the form by hand. The geolocation button needs JavaScript.